Time,TemperatureF,DewpointF,PressureIn,WindDirection,WindDirectionDegrees,WindSpeedMPH,WindSpeedGustMPH,Humidity,HourlyPrecipIn,Conditions,Clouds,dailyrainin,SoftwareType,DateUTC
2013-02-17 00:00:00,28.8,11.6,29.70,North,0,2.0,2.0,48,0.00,,,0.08,Wunderground v.1.13,2013-02-17 05:00:00,
2013-02-17 00:10:00,28.7,10.5,29.70,NNW,332,2.0,3.0,46,0.00,,,0.00,Wunderground v.1.13,2013-02-17 05:10:00,
2013-02-17 00:15:00,28.7,11.0,29.69,SSW,199,1.0,2.0,47,0.00,,,0.00,Wunderground v.1.13,2013-02-17 05:15:00,
2013-02-17 00:25:00,28.5,10.3,29.69,North,0,1.0,2.0,46,0.00,,,0.00,Wunderground v.1.13,2013-02-17 05:25:00,
2013-02-17 00:30:00,28.4,9.7,29.69,SSW,196,2.0,2.0,45,0.00,,,0.00,Wunderground v.1.13,2013-02-17 05:30:00,
2013-02-17 00:35:00,28.4,10.7,29.70,NNW,336,1.0,1.0,47,0.00,,,0.00,Wunderground v.1.13,2013-02-17 05:35:00,
2013-02-17 00:40:00,28.4,10.2,29.70,West,281,1.0,3.0,46,0.00,,,0.00,Wunderground v.1.13,2013-02-17 05:40:00,
2013-02-17 00:50:00,28.2,9.5,29.69,NNE,17,3.0,5.0,45,0.00,,,0.00,Wunderground v.1.13,2013-02-17 05:50:00,
2013-02-17 00:55:00,28.2,9.5,29.69,East,80,3.0,3.0,45,0.00,,,0.00,Wunderground v.1.13,2013-02-17 05:55:00,
2013-02-17 01:00:00,28.1,9.9,29.68,NE,56,2.0,2.0,46,0.00,,,0.00,Wunderground v.1.13,2013-02-17 06:00:00,
2013-02-17 01:10:00,27.9,9.3,29.68,North,0,1.0,5.0,45,0.00,,,0.00,Wunderground v.1.13,2013-02-17 06:10:00,
2013-02-17 01:15:00,27.8,8.7,29.68,NNE,21,2.0,2.0,44,0.00,,,0.00,Wunderground v.1.13,2013-02-17 06:15:00,
2013-02-17 01:25:00,27.6,9.0,29.68,NE,35,3.0,3.0,45,0.00,,,0.00,Wunderground v.1.13,2013-02-17 06:25:00,
2013-02-17 01:30:00,27.5,7.9,29.68,NE,56,4.0,4.0,43,0.00,,,0.00,Wunderground v.1.13,2013-02-17 06:30:00,
2013-02-17 01:35:00,27.5,8.4,29.66,East,79,5.0,5.0,44,0.00,,,0.00,Wunderground v.1.13,2013-02-17 06:35:00,
2013-02-17 01:40:00,27.3,8.2,29.66,SW,216,3.0,3.0,44,0.00,,,0.00,Wunderground v.1.13,2013-02-17 06:40:00,
2013-02-17 01:45:00,27.2,7.6,29.67,NE,48,2.0,2.0,43,0.00,,,0.00,Wunderground v.1.13,2013-02-17 06:45:00,
2013-02-17 01:55:00,27.0,6.4,29.67,North,349,2.0,2.0,41,0.00,,,0.00,Wunderground v.1.13,2013-02-17 06:55:00,
2013-02-17 02:00:00,26.9,6.3,29.67,NNE,21,3.0,5.0,41,0.00,,,0.00,Wunderground v.1.13,2013-02-17 07:00:00,
2013-02-17 02:05:00,26.9,7.4,29.68,NNE,28,2.0,5.0,43,0.00,,,0.00,Wunderground v.1.13,2013-02-17 07:05:00,
2013-02-17 02:10:00,26.9,7.4,29.68,WSW,256,3.0,3.0,43,0.00,,,0.00,Wunderground v.1.13,2013-02-17 07:10:00,
2013-02-17 02:20:00,26.7,7.2,29.69,West,268,2.0,6.0,43,0.00,,,0.00,Wunderground v.1.13,2013-02-17 07:20:00,
2013-02-17 02:25:00,26.6,7.1,29.69,NNE,23,2.0,2.0,43,0.00,,,0.00,Wunderground v.1.13,2013-02-17 07:25:00,
2013-02-17 02:30:00,26.6,8.1,29.68,NE,48,1.0,1.0,45,0.00,,,0.00,Wunderground v.1.13,2013-02-17 07:30:00,
2013-02-17 02:40:00,26.4,7.4,29.68,NNW,347,2.0,2.0,44,0.00,,,0.00,Wunderground v.1.13,2013-02-17 07:40:00,
2013-02-17 02:45:00,26.3,7.3,29.68,ENE,59,2.0,10.0,44,0.00,,,0.00,Wunderground v.1.13,2013-02-17 07:45:00,
2013-02-17 02:50:00,26.3,6.8,29.67,NNE,28,3.0,3.0,43,0.00,,,0.00,Wunderground v.1.13,2013-02-17 07:50:00,
2013-02-17 02:55:00,26.3,6.8,29.67,NE,52,3.0,3.0,43,0.00,,,0.00,Wunderground v.1.13,2013-02-17 07:55:00,
2013-02-17 03:05:00,26.1,6.6,29.66,NW,316,3.0,3.0,43,0.00,,,0.00,Wunderground v.1.13,2013-02-17 08:05:00,
2013-02-17 03:10:00,26.1,7.1,29.66,WNW,285,2.0,2.0,44,0.00,,,0.00,Wunderground v.1.13,2013-02-17 08:10:00,
2013-02-17 03:15:00,26.0,6.5,29.66,ENE,71,1.0,2.0,43,0.00,,,0.00,Wunderground v.1.13,2013-02-17 08:15:00,
2013-02-17 03:25:00,25.8,6.3,29.66,North,8,3.0,5.0,43,0.00,,,0.00,Wunderground v.1.13,2013-02-17 08:25:00,
2013-02-17 03:30:00,25.7,5.7,29.66,WNW,296,3.0,3.0,42,0.00,,,0.00,Wunderground v.1.13,2013-02-17 08:30:00,
2013-02-17 03:40:00,25.6,5.6,29.66,NNE,20,2.0,3.0,42,0.00,,,0.00,Wunderground v.1.13,2013-02-17 08:40:00,
2013-02-17 03:45:00,25.6,6.2,29.66,NE,49,2.0,5.0,43,0.00,,,0.00,Wunderground v.1.13,2013-02-17 08:45:00,
2013-02-17 03:50:00,25.4,5.5,29.66,North,0,4.0,6.0,42,0.00,,,0.00,Wunderground v.1.13,2013-02-17 08:50:00,
2013-02-17 03:55:00,25.4,4.9,29.66,NE,38,5.0,5.0,41,0.00,,,0.00,Wunderground v.1.13,2013-02-17 08:55:00,
2013-02-17 04:00:00,25.4,4.9,29.66,East,79,5.0,5.0,41,0.00,,,0.00,Wunderground v.1.13,2013-02-17 09:00:00,
2013-02-17 04:10:00,25.3,5.9,29.66,NE,42,3.0,5.0,43,0.00,,,0.00,Wunderground v.1.13,2013-02-17 09:10:00,
2013-02-17 04:15:00,25.1,5.7,29.66,NNW,329,4.0,4.0,43,0.00,,,0.00,Wunderground v.1.13,2013-02-17 09:15:00,
2013-02-17 04:25:00,25.1,6.2,29.66,North,359,4.0,4.0,44,0.00,,,0.00,Wunderground v.1.13,2013-02-17 09:25:00,
2013-02-17 04:30:00,25.1,6.2,29.66,North,359,4.0,4.0,44,0.00,,,0.00,Wunderground v.1.13,2013-02-17 09:30:00,
2013-02-17 04:40:00,25.0,6.6,29.66,NE,35,2.0,2.0,45,0.00,,,0.00,Wunderground v.1.13,2013-02-17 09:40:00,
2013-02-17 04:45:00,25.0,7.1,29.66,NNW,342,2.0,5.0,46,0.00,,,0.00,Wunderground v.1.13,2013-02-17 09:45:00,
2013-02-17 04:50:00,24.8,6.4,29.66,East,86,2.0,2.0,45,0.00,,,0.00,Wunderground v.1.13,2013-02-17 09:50:00,
2013-02-17 04:55:00,24.8,6.4,29.66,SW,220,2.0,2.0,45,0.00,,,0.00,Wunderground v.1.13,2013-02-17 09:55:00,
2013-02-17 05:05:00,24.7,6.8,29.65,NNW,332,3.0,6.0,46,0.00,,,0.00,Wunderground v.1.13,2013-02-17 10:05:00,
2013-02-17 05:10:00,24.7,6.8,29.65,West,267,3.0,6.0,46,0.00,,,0.00,Wunderground v.1.13,2013-02-17 10:10:00,
2013-02-17 05:15:00,24.5,6.6,29.65,North,359,3.0,3.0,46,0.00,,,0.00,Wunderground v.1.13,2013-02-17 10:15:00,
2013-02-17 05:25:00,24.5,6.6,29.64,WNW,295,2.0,2.0,46,0.00,,,0.00,Wunderground v.1.13,2013-02-17 10:25:00,
2013-02-17 05:30:00,24.4,7.0,29.64,East,86,2.0,2.0,47,0.00,,,0.00,Wunderground v.1.13,2013-02-17 10:30:00,
2013-02-17 05:35:00,24.4,6.6,29.65,ENE,58,2.0,2.0,46,0.00,,,0.00,Wunderground v.1.13,2013-02-17 10:35:00,
2013-02-17 05:40:00,24.4,6.1,29.65,NE,54,3.0,6.0,45,0.00,,,0.00,Wunderground v.1.13,2013-02-17 10:40:00,
2013-02-17 05:45:00,24.4,7.0,29.64,NNE,28,2.0,2.0,47,0.00,,,0.00,Wunderground v.1.13,2013-02-17 10:45:00,
2013-02-17 05:55:00,24.2,6.8,29.64,NNW,343,1.0,2.0,47,0.00,,,0.00,Wunderground v.1.13,2013-02-17 10:55:00,
2013-02-17 06:00:00,24.2,6.4,29.64,NNW,344,2.0,3.0,46,0.00,,,0.00,Wunderground v.1.13,2013-02-17 11:00:00,
2013-02-17 06:10:00,24.1,6.3,29.63,ENE,71,1.0,1.0,46,0.00,,,0.00,Wunderground v.1.13,2013-02-17 11:10:00,
2013-02-17 06:15:00,24.1,6.3,29.63,North,356,1.0,3.0,46,0.00,,,0.00,Wunderground v.1.13,2013-02-17 11:15:00,
2013-02-17 06:20:00,24.1,6.3,29.63,West,268,2.0,2.0,46,0.00,,,0.00,Wunderground v.1.13,2013-02-17 11:20:00,
2013-02-17 06:25:00,24.1,6.3,29.63,West,261,2.0,2.0,46,0.00,,,0.00,Wunderground v.1.13,2013-02-17 11:25:00,
2013-02-17 06:35:00,23.9,6.1,29.63,NE,52,2.0,2.0,46,0.00,,,0.00,Wunderground v.1.13,2013-02-17 11:35:00,
2013-02-17 06:45:00,23.8,6.0,29.63,NW,313,1.0,1.0,46,0.00,,,0.00,Wunderground v.1.13,2013-02-17 11:45:00,
2013-02-17 06:55:00,23.8,6.5,29.63,North,352,1.0,1.0,47,0.00,,,0.00,Wunderground v.1.13,2013-02-17 11:55:00,
2013-02-17 07:00:00,23.8,6.9,29.63,North,0,0.0,0.0,48,0.00,,,0.00,Wunderground v.1.13,2013-02-17 12:00:00,
2013-02-17 07:05:00,23.8,6.9,29.62,North,350,1.0,1.0,48,0.00,,,0.00,Wunderground v.1.13,2013-02-17 12:05:00,
2013-02-17 07:10:00,23.8,6.9,29.62,SE,144,1.0,1.0,48,0.00,,,0.00,Wunderground v.1.13,2013-02-17 12:10:00,
2013-02-17 07:20:00,23.8,6.9,29.63,ENE,71,0.0,0.0,48,0.00,,,0.00,Wunderground v.1.13,2013-02-17 12:20:00,
2013-02-17 07:25:00,23.8,6.5,29.63,NW,304,1.0,1.0,47,0.00,,,0.00,Wunderground v.1.13,2013-02-17 12:25:00,
2013-02-17 07:30:00,23.8,6.5,29.63,WNW,284,1.0,2.0,47,0.00,,,0.00,Wunderground v.1.13,2013-02-17 12:30:00,
2013-02-17 07:40:00,23.8,6.0,29.63,WSW,237,1.0,2.0,46,0.00,,,0.00,Wunderground v.1.13,2013-02-17 12:40:00,
2013-02-17 07:45:00,23.9,6.1,29.63,West,268,1.0,6.0,46,0.00,,,0.00,Wunderground v.1.13,2013-02-17 12:45:00,
2013-02-17 07:55:00,23.9,5.6,29.63,West,270,1.0,3.0,45,0.00,,,0.00,Wunderground v.1.13,2013-02-17 12:55:00,
2013-02-17 08:05:00,23.9,4.6,29.64,SSE,152,3.0,3.0,43,0.00,,,0.00,Wunderground v.1.13,2013-02-17 13:05:00,
2013-02-17 08:10:00,24.1,4.8,29.64,NNW,346,3.0,3.0,43,0.00,,,0.00,Wunderground v.1.13,2013-02-17 13:10:00,
2013-02-17 08:15:00,24.1,5.3,29.64,NNW,339,1.0,1.0,44,0.00,,,0.00,Wunderground v.1.13,2013-02-17 13:15:00,
2013-02-17 08:25:00,24.2,4.4,29.64,East,85,1.0,1.0,42,0.00,,,0.00,Wunderground v.1.13,2013-02-17 13:25:00,
2013-02-17 08:30:00,24.4,5.1,29.64,North,359,2.0,2.0,43,0.00,,,0.00,Wunderground v.1.13,2013-02-17 13:30:00,
2013-02-17 08:40:00,24.5,5.2,29.63,North,356,1.0,1.0,43,0.00,,,0.00,Wunderground v.1.13,2013-02-17 13:40:00,
2013-02-17 08:45:00,24.7,4.3,29.63,NNW,340,1.0,1.0,41,0.00,,,0.00,Wunderground v.1.13,2013-02-17 13:45:00,
2013-02-17 08:50:00,24.8,3.9,29.63,NNE,25,1.0,1.0,40,0.00,,,0.00,Wunderground v.1.13,2013-02-17 13:50:00,
2013-02-17 08:55:00,25.0,5.1,29.63,North,350,1.0,1.0,42,0.00,,,0.00,Wunderground v.1.13,2013-02-17 13:55:00,
2013-02-17 09:00:00,25.1,4.1,29.62,North,353,1.0,1.0,40,0.00,,,0.00,Wunderground v.1.13,2013-02-17 14:00:00,
2013-02-17 09:10:00,25.4,3.8,29.62,NW,319,1.0,1.0,39,0.00,,,0.00,Wunderground v.1.13,2013-02-17 14:10:00,
2013-02-17 09:20:00,25.6,2.3,29.62,West,281,3.0,3.0,36,0.00,,,0.00,Wunderground v.1.13,2013-02-17 14:20:00,
2013-02-17 09:25:00,26.0,3.8,29.62,NW,318,2.0,2.0,38,0.00,,,0.00,Wunderground v.1.13,2013-02-17 14:25:00,
2013-02-17 09:30:00,26.3,2.3,29.61,West,267,1.0,1.0,35,0.00,,,0.00,Wunderground v.1.13,2013-02-17 14:30:00,
2013-02-17 09:40:00,26.4,1.8,29.61,WNW,287,4.0,4.0,34,0.00,,,0.00,Wunderground v.1.13,2013-02-17 14:40:00,
2013-02-17 09:45:00,26.3,1.7,29.61,WNW,298,6.0,6.0,34,0.00,,,0.00,Wunderground v.1.13,2013-02-17 14:45:00,
2013-02-17 09:50:00,26.4,3.0,29.61,WSW,246,6.0,6.0,36,0.00,,,0.00,Wunderground v.1.13,2013-02-17 14:50:00,
2013-02-17 10:00:00,26.3,2.3,29.61,WNW,292,6.0,6.0,35,0.00,,,0.00,Wunderground v.1.13,2013-02-17 15:00:00,
2013-02-17 10:05:00,26.3,2.3,29.62,WNW,288,7.0,7.0,35,0.00,,,0.00,Wunderground v.1.13,2013-02-17 15:05:00,
2013-02-17 10:10:00,26.6,4.4,29.62,WSW,243,5.0,5.0,38,0.00,,,0.00,Wunderground v.1.13,2013-02-17 15:10:00,
2013-02-17 10:15:00,26.6,4.4,29.61,NW,312,5.0,6.0,38,0.00,,,0.00,Wunderground v.1.13,2013-02-17 15:15:00,
2013-02-17 10:25:00,26.6,2.6,29.61,West,268,7.0,7.0,35,0.00,,,0.00,Wunderground v.1.13,2013-02-17 15:25:00,
2013-02-17 10:30:00,26.6,4.4,29.61,NW,313,6.0,6.0,38,0.00,,,0.00,Wunderground v.1.13,2013-02-17 15:30:00,
2013-02-17 10:35:00,26.4,2.4,29.61,WNW,294,6.0,6.0,35,0.00,,,0.00,Wunderground v.1.13,2013-02-17 15:35:00,
2013-02-17 10:45:00,26.6,4.4,29.61,West,270,7.0,7.0,38,0.00,,,0.00,Wunderground v.1.13,2013-02-17 15:45:00,
2013-02-17 10:50:00,26.9,4.6,29.61,North,3,6.0,6.0,38,0.00,,,0.00,Wunderground v.1.13,2013-02-17 15:50:00,
2013-02-17 10:55:00,27.2,3.1,29.61,WSW,258,5.0,7.0,35,0.00,,,0.00,Wunderground v.1.13,2013-02-17 15:55:00,
2013-02-17 11:05:00,27.6,3.5,29.63,WNW,282,5.0,8.0,35,0.00,,,0.00,Wunderground v.1.13,2013-02-17 16:05:00,
2013-02-17 11:10:00,27.8,3.0,29.63,West,268,5.0,8.0,34,0.00,,,0.00,Wunderground v.1.13,2013-02-17 16:10:00,
2013-02-17 11:15:00,27.3,0.6,29.63,West,260,7.0,11.0,31,0.00,,,0.00,Wunderground v.1.13,2013-02-17 16:15:00,
2013-02-17 11:25:00,27.6,1.5,29.63,West,275,7.0,7.0,32,0.00,,,0.00,Wunderground v.1.13,2013-02-17 16:25:00,
2013-02-17 11:30:00,27.8,1.7,29.63,South,178,6.0,6.0,32,0.00,,,0.00,Wunderground v.1.13,2013-02-17 16:30:00,
2013-02-17 11:35:00,28.2,1.4,29.63,West,275,6.0,6.0,31,0.00,,,0.00,Wunderground v.1.13,2013-02-17 16:35:00,
2013-02-17 11:45:00,28.1,0.6,29.63,North,349,6.0,6.0,30,0.00,,,0.00,Wunderground v.1.13,2013-02-17 16:45:00,
2013-02-17 11:55:00,28.5,0.2,29.63,WNW,291,6.0,6.0,29,0.00,,,0.00,Wunderground v.1.13,2013-02-17 16:55:00,
2013-02-17 12:00:00,28.5,0.2,29.63,WNW,295,6.0,7.0,29,0.00,,,0.00,Wunderground v.1.13,2013-02-17 17:00:00,
2013-02-17 12:05:00,28.4,0.1,29.63,WNW,282,6.0,10.0,29,0.00,,,0.00,Wunderground v.1.13,2013-02-17 17:05:00,
2013-02-17 12:10:00,28.5,-0.5,29.63,WNW,292,5.0,7.0,28,0.00,,,0.00,Wunderground v.1.13,2013-02-17 17:10:00,
2013-02-17 12:15:00,28.5,0.9,29.63,WNW,288,6.0,12.0,30,0.00,,,0.00,Wunderground v.1.13,2013-02-17 17:15:00,
2013-02-17 12:25:00,28.5,2.3,29.64,WNW,287,8.0,16.0,32,0.00,,,0.00,Wunderground v.1.13,2013-02-17 17:25:00,
2013-02-17 12:30:00,28.4,1.6,29.64,West,264,8.0,8.0,31,0.00,,,0.00,Wunderground v.1.13,2013-02-17 17:30:00,
2013-02-17 12:35:00,28.5,1.6,29.64,WSW,237,8.0,11.0,31,0.00,,,0.00,Wunderground v.1.13,2013-02-17 17:35:00,
2013-02-17 12:40:00,28.4,0.9,29.64,WSW,256,8.0,8.0,30,0.00,,,0.00,Wunderground v.1.13,2013-02-17 17:40:00,
2013-02-17 12:45:00,28.8,0.5,29.64,WNW,288,7.0,17.0,29,0.00,,,0.00,Wunderground v.1.13,2013-02-17 17:45:00,
2013-02-17 12:50:00,29.0,1.4,29.64,NNW,329,5.0,5.0,30,0.00,,,0.00,Wunderground v.1.13,2013-02-17 17:50:00,
2013-02-17 13:00:00,28.7,0.4,29.64,West,280,7.0,8.0,29,0.00,,,0.00,Wunderground v.1.13,2013-02-17 18:00:00,
2013-02-17 13:05:00,28.8,2.6,29.64,NW,306,8.0,8.0,32,0.00,,,0.00,Wunderground v.1.13,2013-02-17 18:05:00,
2013-02-17 13:10:00,28.7,0.4,29.64,WNW,291,8.0,8.0,29,0.00,,,0.00,Wunderground v.1.13,2013-02-17 18:10:00,
2013-02-17 13:15:00,28.8,0.5,29.65,SSW,200,9.0,9.0,29,0.00,,,0.00,Wunderground v.1.13,2013-02-17 18:15:00,
2013-02-17 13:25:00,28.7,1.1,29.65,West,261,9.0,11.0,30,0.00,,,0.00,Wunderground v.1.13,2013-02-17 18:25:00,
2013-02-17 13:30:00,28.8,0.5,29.65,West,278,9.0,9.0,29,0.00,,,0.00,Wunderground v.1.13,2013-02-17 18:30:00,
2013-02-17 13:35:00,28.8,1.2,29.65,WNW,298,8.0,9.0,30,0.00,,,0.00,Wunderground v.1.13,2013-02-17 18:35:00,
2013-02-17 13:40:00,28.7,1.8,29.65,West,270,10.0,11.0,31,0.00,,,0.00,Wunderground v.1.13,2013-02-17 18:40:00,
2013-02-17 13:45:00,28.7,-0.4,29.65,NE,41,10.0,10.0,28,0.00,,,0.00,Wunderground v.1.13,2013-02-17 18:45:00,
2013-02-17 13:55:00,28.4,0.1,29.65,West,268,9.0,11.0,29,0.00,,,0.00,Wunderground v.1.13,2013-02-17 18:55:00,
2013-02-17 14:00:00,28.5,0.9,29.65,SW,222,11.0,11.0,30,0.00,,,0.00,Wunderground v.1.13,2013-02-17 19:00:00,
2013-02-17 14:05:00,28.4,-0.6,29.66,WSW,243,7.0,11.0,28,0.00,,,0.00,Wunderground v.1.13,2013-02-17 19:05:00,
2013-02-17 14:10:00,27.9,-1.8,29.66,West,278,9.0,11.0,27,0.00,,,0.00,Wunderground v.1.13,2013-02-17 19:10:00,
2013-02-17 14:15:00,28.1,-1.7,29.66,WNW,294,10.0,11.0,27,0.00,,,0.00,Wunderground v.1.13,2013-02-17 19:15:00,
2013-02-17 14:25:00,28.7,0.4,29.66,NW,312,5.0,5.0,29,0.00,,,0.00,Wunderground v.1.13,2013-02-17 19:25:00,
2013-02-17 14:30:00,29.1,0.0,29.66,NW,312,4.0,11.0,28,0.00,,,0.00,Wunderground v.1.13,2013-02-17 19:30:00,
2013-02-17 14:35:00,29.3,0.2,29.67,NW,309,5.0,13.0,28,0.00,,,0.00,Wunderground v.1.13,2013-02-17 19:35:00,
2013-02-17 14:40:00,29.4,0.3,29.67,West,280,5.0,5.0,28,0.00,,,0.00,Wunderground v.1.13,2013-02-17 19:40:00,
2013-02-17 14:50:00,28.7,-0.4,29.68,NW,318,8.0,14.0,28,0.00,,,0.00,Wunderground v.1.13,2013-02-17 19:50:00,
2013-02-17 14:55:00,28.2,-0.8,29.68,West,264,9.0,9.0,28,0.00,,,0.00,Wunderground v.1.13,2013-02-17 19:55:00,
2013-02-17 15:00:00,28.4,-0.6,29.68,SW,236,9.0,9.0,28,0.00,,,0.00,Wunderground v.1.13,2013-02-17 20:00:00,
2013-02-17 15:05:00,28.4,0.1,29.68,SW,230,8.0,8.0,29,0.00,,,0.00,Wunderground v.1.13,2013-02-17 20:05:00,
2013-02-17 15:15:00,28.4,0.1,29.68,WSW,247,7.0,8.0,29,0.00,,,0.00,Wunderground v.1.13,2013-02-17 20:15:00,
2013-02-17 15:20:00,28.1,-1.7,29.68,WNW,288,9.0,9.0,27,0.00,,,0.00,Wunderground v.1.13,2013-02-17 20:20:00,
2013-02-17 15:25:00,28.1,-0.9,29.68,West,267,10.0,10.0,28,0.00,,,0.00,Wunderground v.1.13,2013-02-17 20:25:00,
2013-02-17 15:30:00,28.1,-0.9,29.68,West,281,9.0,9.0,28,0.00,,,0.00,Wunderground v.1.13,2013-02-17 20:30:00,
2013-02-17 15:40:00,27.9,1.1,29.69,West,263,8.0,11.0,31,0.00,,,0.00,Wunderground v.1.13,2013-02-17 20:40:00,
2013-02-17 15:45:00,27.5,0.1,29.69,West,278,9.0,9.0,30,0.00,,,0.00,Wunderground v.1.13,2013-02-17 20:45:00,
2013-02-17 15:50:00,27.3,-0.1,29.70,WNW,289,10.0,10.0,30,0.00,,,0.00,Wunderground v.1.13,2013-02-17 20:50:00,
2013-02-17 15:55:00,27.3,0.6,29.70,WNW,282,10.0,10.0,31,0.00,,,0.00,Wunderground v.1.13,2013-02-17 20:55:00,
2013-02-17 16:00:00,26.9,0.2,29.70,West,275,10.0,12.0,31,0.00,,,0.00,Wunderground v.1.13,2013-02-17 21:00:00,
2013-02-17 16:10:00,27.0,0.3,29.70,West,280,9.0,12.0,31,0.00,,,0.00,Wunderground v.1.13,2013-02-17 21:10:00,
2013-02-17 16:20:00,26.6,0.0,29.71,West,268,8.0,11.0,31,0.00,,,0.00,Wunderground v.1.13,2013-02-17 21:20:00,
2013-02-17 16:25:00,26.4,0.5,29.71,WNW,291,9.0,13.0,32,0.00,,,0.00,Wunderground v.1.13,2013-02-17 21:25:00,
2013-02-17 16:30:00,26.1,0.2,29.71,WNW,298,9.0,9.0,32,0.00,,,0.00,Wunderground v.1.13,2013-02-17 21:30:00,
2013-02-17 16:40:00,25.6,-0.9,29.72,SW,227,9.0,17.0,31,0.00,,,0.00,Wunderground v.1.13,2013-02-17 21:40:00,
2013-02-17 16:45:00,25.4,0.2,29.72,NNW,343,9.0,9.0,33,0.00,,,0.00,Wunderground v.1.13,2013-02-17 21:45:00,
2013-02-17 16:50:00,25.3,-0.5,29.72,West,281,8.0,16.0,32,0.00,,,0.00,Wunderground v.1.13,2013-02-17 21:50:00,
2013-02-17 16:55:00,24.8,0.4,29.72,NW,306,7.0,7.0,34,0.00,,,0.00,Wunderground v.1.13,2013-02-17 21:55:00,
2013-02-17 17:00:00,24.5,0.1,29.72,West,270,8.0,14.0,34,0.00,,,0.00,Wunderground v.1.13,2013-02-17 22:00:00,
2013-02-17 17:10:00,24.2,-0.2,29.74,WNW,287,7.0,13.0,34,0.00,,,0.00,Wunderground v.1.13,2013-02-17 22:10:00,
2013-02-17 17:15:00,24.1,0.3,29.74,WNW,298,8.0,11.0,35,0.00,,,0.00,Wunderground v.1.13,2013-02-17 22:15:00,
2013-02-17 17:20:00,24.1,2.1,29.74,SW,220,6.0,6.0,38,0.00,,,0.00,Wunderground v.1.13,2013-02-17 22:20:00,
2013-02-17 17:25:00,23.9,1.4,29.74,WSW,256,5.0,5.0,37,0.00,,,0.00,Wunderground v.1.13,2013-02-17 22:25:00,
2013-02-17 17:30:00,23.5,0.4,29.74,West,274,8.0,13.0,36,0.00,,,0.00,Wunderground v.1.13,2013-02-17 22:30:00,
2013-02-17 17:40:00,23.0,0.0,29.75,NNW,344,8.0,8.0,36,0.00,,,0.00,Wunderground v.1.13,2013-02-17 22:40:00,
2013-02-17 17:45:00,22.9,-0.1,29.75,West,274,7.0,7.0,36,0.00,,,0.00,Wunderground v.1.13,2013-02-17 22:45:00,
2013-02-17 17:50:00,22.7,0.3,29.77,WNW,289,8.0,10.0,37,0.00,,,0.00,Wunderground v.1.13,2013-02-17 22:50:00,
2013-02-17 17:55:00,22.5,-0.5,29.77,West,280,10.0,10.0,36,0.00,,,0.00,Wunderground v.1.13,2013-02-17 22:55:00,
2013-02-17 18:00:00,22.4,0.6,29.78,SW,227,9.0,9.0,38,0.00,,,0.00,Wunderground v.1.13,2013-02-17 23:00:00,
2013-02-17 18:10:00,22.2,0.4,29.78,West,277,10.0,10.0,38,0.00,,,0.00,Wunderground v.1.13,2013-02-17 23:10:00,
2013-02-17 18:15:00,22.1,0.9,29.78,West,277,7.0,7.0,39,0.00,,,0.00,Wunderground v.1.13,2013-02-17 23:15:00,
2013-02-17 18:20:00,21.9,0.1,29.79,WNW,298,8.0,17.0,38,0.00,,,0.00,Wunderground v.1.13,2013-02-17 23:20:00,
2013-02-17 18:25:00,21.8,0.6,29.79,West,278,9.0,9.0,39,0.00,,,0.00,Wunderground v.1.13,2013-02-17 23:25:00,
2013-02-17 18:30:00,21.8,0.6,29.80,WSW,251,7.0,7.0,39,0.00,,,0.00,Wunderground v.1.13,2013-02-17 23:30:00,
2013-02-17 18:40:00,21.6,1.0,29.80,WSW,248,5.0,10.0,40,0.00,,,0.00,Wunderground v.1.13,2013-02-17 23:40:00,
2013-02-17 18:45:00,21.3,0.7,29.80,West,272,5.0,5.0,40,0.00,,,0.00,Wunderground v.1.13,2013-02-17 23:45:00,
2013-02-17 18:50:00,21.3,0.7,29.81,NW,323,5.0,6.0,40,0.00,,,0.00,Wunderground v.1.13,2013-02-17 23:50:00,
2013-02-17 18:55:00,21.1,1.0,29.81,West,261,5.0,8.0,41,0.00,,,0.00,Wunderground v.1.13,2013-02-17 23:55:00,
2013-02-17 19:00:00,21.0,0.4,29.82,WNW,285,6.0,7.0,40,0.00,,,0.00,Wunderground v.1.13,2013-02-18 00:00:00,
2013-02-17 19:10:00,20.8,0.8,29.82,East,86,8.0,8.0,41,0.00,,,0.00,Wunderground v.1.13,2013-02-18 00:10:00,
2013-02-17 19:15:00,20.5,0.5,29.82,WSW,251,8.0,8.0,41,0.00,,,0.00,Wunderground v.1.13,2013-02-18 00:15:00,
2013-02-17 19:20:00,20.2,0.2,29.82,SSW,205,7.0,7.0,41,0.00,,,0.00,Wunderground v.1.13,2013-02-18 00:20:00,
2013-02-17 19:25:00,20.2,0.2,29.82,West,272,6.0,6.0,41,0.00,,,0.00,Wunderground v.1.13,2013-02-18 00:25:00,
2013-02-17 19:30:00,20.0,1.5,29.82,WNW,301,5.0,5.0,44,0.00,,,0.00,Wunderground v.1.13,2013-02-18 00:30:00,
2013-02-17 19:35:00,19.9,1.5,29.83,West,274,5.0,5.0,44,0.00,,,0.00,Wunderground v.1.13,2013-02-18 00:35:00,
2013-02-17 19:45:00,19.4,1.5,29.84,WSW,241,6.0,6.0,45,0.00,,,0.00,Wunderground v.1.13,2013-02-18 00:45:00,
2013-02-17 19:55:00,19.1,2.1,29.84,West,274,9.0,9.0,47,0.00,,,0.00,Wunderground v.1.13,2013-02-18 00:55:00,
2013-02-17 20:00:00,18.9,2.0,29.84,WNW,301,8.0,10.0,47,0.00,,,0.00,Wunderground v.1.13,2013-02-18 01:00:00,
2013-02-17 20:05:00,18.9,2.0,29.85,WSW,250,7.0,10.0,47,0.00,,,0.00,Wunderground v.1.13,2013-02-18 01:05:00,
2013-02-17 20:10:00,18.6,1.2,29.85,West,275,8.0,8.0,46,0.00,,,0.00,Wunderground v.1.13,2013-02-18 01:10:00,
2013-02-17 20:20:00,18.3,1.4,29.85,West,261,9.0,9.0,47,0.00,,,0.00,Wunderground v.1.13,2013-02-18 01:20:00,
2013-02-17 20:25:00,18.0,1.1,29.85,West,275,8.0,8.0,47,0.00,,,0.00,Wunderground v.1.13,2013-02-18 01:25:00,
2013-02-17 20:35:00,17.7,-0.6,29.86,WNW,296,11.0,11.0,44,0.00,,,0.00,Wunderground v.1.13,2013-02-18 01:35:00,
2013-02-17 20:45:00,17.3,-0.9,29.86,West,272,8.0,14.0,44,0.00,,,0.00,Wunderground v.1.13,2013-02-18 01:45:00,
2013-02-17 20:50:00,17.2,-0.5,29.88,NW,318,9.0,10.0,45,0.00,,,0.00,Wunderground v.1.13,2013-02-18 01:50:00,
2013-02-17 20:55:00,17.0,-1.2,29.88,WNW,287,8.0,8.0,44,0.00,,,0.00,Wunderground v.1.13,2013-02-18 01:55:00,
2013-02-17 21:00:00,16.9,-1.3,29.88,WSW,246,8.0,8.0,44,0.00,,,0.00,Wunderground v.1.13,2013-02-18 02:00:00,
2013-02-17 21:10:00,16.5,-2.1,29.88,NW,313,10.0,13.0,43,0.00,,,0.00,Wunderground v.1.13,2013-02-18 02:10:00,
2013-02-17 21:15:00,16.5,-0.7,29.88,WSW,257,10.0,10.0,46,0.00,,,0.00,Wunderground v.1.13,2013-02-18 02:15:00,
2013-02-17 21:20:00,16.4,-1.3,29.89,WNW,284,7.0,8.0,45,0.00,,,0.00,Wunderground v.1.13,2013-02-18 02:20:00,
2013-02-17 21:25:00,16.2,-1.5,29.89,NW,325,8.0,10.0,45,0.00,,,0.00,Wunderground v.1.13,2013-02-18 02:25:00,
2013-02-17 21:35:00,16.1,-2.0,29.90,West,280,10.0,10.0,44,0.00,,,0.00,Wunderground v.1.13,2013-02-18 02:35:00,
2013-02-17 21:40:00,16.1,-2.0,29.90,West,274,9.0,9.0,44,0.00,,,0.00,Wunderground v.1.13,2013-02-18 02:40:00,
2013-02-17 21:45:00,15.9,-1.7,29.90,WNW,282,11.0,11.0,45,0.00,,,0.00,Wunderground v.1.13,2013-02-18 02:45:00,
2013-02-17 21:55:00,15.9,-1.7,29.91,NW,315,10.0,10.0,45,0.00,,,0.00,Wunderground v.1.13,2013-02-18 02:55:00,
2013-02-17 22:00:00,15.9,-2.2,29.91,North,357,11.0,11.0,44,0.00,,,0.00,Wunderground v.1.13,2013-02-18 03:00:00,
2013-02-17 22:05:00,15.9,-1.7,29.91,WNW,287,10.0,18.0,45,0.00,,,0.00,Wunderground v.1.13,2013-02-18 03:05:00,
2013-02-17 22:10:00,15.9,-1.3,29.91,North,0,9.0,10.0,46,0.00,,,0.00,Wunderground v.1.13,2013-02-18 03:10:00,
2013-02-17 22:15:00,15.9,-1.7,29.91,WNW,285,9.0,9.0,45,0.00,,,0.00,Wunderground v.1.13,2013-02-18 03:15:00,
2013-02-17 22:25:00,15.9,-1.3,29.91,West,277,8.0,21.0,46,0.00,,,0.00,Wunderground v.1.13,2013-02-18 03:25:00,
2013-02-17 22:30:00,15.9,-1.3,29.91,West,267,9.0,9.0,46,0.00,,,0.00,Wunderground v.1.13,2013-02-18 03:30:00,
2013-02-17 22:35:00,15.9,-0.8,29.91,NW,313,9.0,9.0,47,0.00,,,0.00,Wunderground v.1.13,2013-02-18 03:35:00,
2013-02-17 22:40:00,15.9,-0.8,29.91,West,274,8.0,16.0,47,0.00,,,0.00,Wunderground v.1.13,2013-02-18 03:40:00,
2013-02-17 22:45:00,15.9,-0.8,29.91,West,264,8.0,8.0,47,0.00,,,0.00,Wunderground v.1.13,2013-02-18 03:45:00,
2013-02-17 22:55:00,15.9,-0.4,29.91,NNW,336,9.0,9.0,48,0.00,,,0.00,Wunderground v.1.13,2013-02-18 03:55:00,
2013-02-17 23:00:00,15.9,-0.4,29.91,NW,313,9.0,9.0,48,0.00,,,0.00,Wunderground v.1.13,2013-02-18 04:00:00,
2013-02-17 23:05:00,16.1,-0.6,29.92,WNW,287,9.0,10.0,47,0.00,,,0.00,Wunderground v.1.13,2013-02-18 04:05:00,
2013-02-17 23:10:00,16.1,-0.6,29.92,WSW,247,10.0,12.0,47,0.00,,,0.00,Wunderground v.1.13,2013-02-18 04:10:00,
2013-02-17 23:15:00,16.1,-0.2,29.92,West,272,8.0,8.0,48,0.00,,,0.00,Wunderground v.1.13,2013-02-18 04:15:00,
2013-02-17 23:25:00,16.2,-0.1,29.92,WNW,282,8.0,8.0,48,0.00,,,0.00,Wunderground v.1.13,2013-02-18 04:25:00,
2013-02-17 23:30:00,16.2,-0.1,29.92,WNW,285,8.0,13.0,48,0.00,,,0.00,Wunderground v.1.13,2013-02-18 04:30:00,
2013-02-17 23:40:00,16.4,0.1,29.93,WNW,284,9.0,9.0,48,0.00,,,0.00,Wunderground v.1.13,2013-02-18 04:40:00,
2013-02-17 23:45:00,16.4,0.5,29.93,West,270,7.0,11.0,49,0.00,,,0.00,Wunderground v.1.13,2013-02-18 04:45:00,
2013-02-17 23:50:00,16.4,1.0,29.93,SSW,210,7.0,7.0,50,0.00,,,0.00,Wunderground v.1.13,2013-02-18 04:50:00,
2013-02-17 23:55:00,16.4,0.5,29.93,West,260,8.0,9.0,49,0.00,,,0.00,Wunderground v.1.13,2013-02-18 04:55:00,